Location: Newark
(44.6028°N, 124.0883°W)
Time: 01:47:17
(UTC+00:00)

Tiros 1 - Visible Passes

Search period start: 16 October 2019 00:00
Search period end: 26 October 2019 00:00
Orbit: 630 x 664 km, 48.4° (Epoch: 14 October)

Date Brightness Start Highest point End Pass type
(mag) Time Alt. Az. Time Alt. Az. Time Alt. Az.
16 Oct 8.7 11:34:49 34° E 11:34:49 34° E 11:37:41 10° ENE visible
16 Oct 7.4 13:12:29 25° W 13:15:14 62° NNW 13:20:01 10° ENE visible
17 Oct 7.6 11:59:52 60° ENE 11:59:52 60° ENE 12:03:50 10° ENE visible
17 Oct 7.6 13:37:33 14° WNW 13:41:31 54° N 13:46:15 10° ENE visible
18 Oct 10.2 10:47:14 12° ENE 10:47:14 12° ENE 10:47:38 10° ENE visible
18 Oct 7.2 12:24:54 62° NNW 12:25:11 63° NNW 12:29:59 10° ENE visible
18 Oct 7.6 14:03:04 10° WNW 14:07:50 57° N 14:12:34 10° E visible
19 Oct 9.6 11:12:14 21° ENE 11:12:14 21° ENE 11:13:48 10° ENE visible
19 Oct 7.6 12:49:54 37° WNW 12:51:28 54° N 12:56:12 10° ENE visible
20 Oct 8.8 11:37:14 32° ENE 11:37:14 32° ENE 11:39:56 10° ENE visible
20 Oct 7.6 13:14:54 23° WNW 13:17:46 56° N 13:22:31 10° E visible
21 Oct 8.0 12:02:14 48° NNE 12:02:14 48° NNE 12:06:09 10° ENE visible
21 Oct 7.4 13:39:54 14° WNW 13:44:01 71° NNE 13:48:50 10° E visible
22 Oct 10.3 10:49:35 12° ENE 10:49:35 12° ENE 10:49:53 10° ENE visible
22 Oct 7.5 12:27:15 53° NNW 12:27:43 55° N 12:32:27 10° E visible
22 Oct 7.3 14:05:19 10° WNW 14:10:09 79° SSW 14:14:58 10° ESE visible
23 Oct 9.7 11:14:38 19° ENE 11:14:38 19° ENE 11:16:05 10° ENE visible
23 Oct 7.3 12:52:18 39° NW 12:53:58 68° NNE 12:58:47 10° E visible
24 Oct 8.9 11:39:43 31° ENE 11:39:43 31° ENE 11:42:23 10° E visible
24 Oct 7.1 13:17:23 26° WNW 13:20:07 82° SSW 13:24:57 10° ESE visible
25 Oct 7.9 12:04:51 53° ENE 12:04:51 53° ENE 12:08:43 10° E visible
25 Oct 7.6 13:42:32 16° WNW 13:46:06 48° SSW 13:50:43 10° SE visible
